Del Rio Laughlin AFB, TX

10:41 AM CDT on September 22, 2017 (GMT -0500)
Laughlin Air Force Base

Weather History for KDLF - August, 2013

Change the Weather History Date:

Thursday, August 8, 2013

  Actual Average Record
Temperature  
Mean Temperature 90 °F -  
Max Temperature 101 °F 99 °F 109 °F (2003)
Min Temperature 79 °F 77 °F 72 °F (2017)
Cooling Degree Days 25    
Growing Degree Days 40 (Base 50)    
Moisture  
Dew Point 67 °F    
Average Humidity 50    
Maximum Humidity 74    
Minimum Humidity 29    
Precipitation  
Precipitation 0.00 in - - ()
Sea Level Pressure  
Sea Level Pressure 29.81 in    
Wind  
Wind Speed 11 mph (SE)    
Max Wind Speed 16 mph    
Max Gust Speed 20 mph    
Visibility 10 miles    
Events      
Averages and records for this station are not official NWS values.
T = Trace of Precipitation, MM = Missing Value Source: NWS Daily Summary

Daily Weather History Graph

Daily Weather History Graph

Search for Another Location

Airport or City:

Trip Planner

Search our weather history database for the weather conditions in past years. The results will help you decide how hot, cold, wet, or windy it might be!

Date:

Astronomy

Aug. 08, 2013 Rise Set
Actual Time 7:07 AM CDT 8:29 PM CDT
Civil Twilight 6:42 AM CDT 8:54 PM CDT
Nautical Twilight 6:12 AM CDT 9:24 PM CDT
Astronomical Twilight 5:40 AM CDT 9:56 PM CDT
Moon 8:43 AM CDT (8/8) 9:24 PM CDT (8/8)
Length of Visible Light 14h 12m
Length of Day
13h 21m
Waxing Crescent, 3% of the Moon is Illuminated
Aug 8
Waxing Crescent
Aug 14
First Quarter
Aug 20
Full
Aug 28
Last Quarter
Sep 5
New

Hourly Weather History & Observations

Time (CDT) Temp. Heat Index Dew Point Humidity Pressure Visibility Wind Dir Wind Speed Gust Speed Precip Events Conditions
12:58 AM 87.6 °F 86.9 °F 58.8 °F 38% 29.80 in 10.0 mi SE 11.5 mph - N/A   Clear
1:58 AM 88.0 °F 90.7 °F 66.4 °F 49% 29.80 in 10.0 mi SE 13.8 mph - N/A   Partly Cloudy
2:58 AM 86.4 °F 88.7 °F 66.2 °F 51% 29.80 in 10.0 mi SE 15.0 mph - N/A   Clear
3:58 AM 84.6 °F 87.4 °F 67.3 °F 56% 29.80 in 10.0 mi SE 12.7 mph - N/A   Clear
4:58 AM 83.1 °F 85.9 °F 67.5 °F 59% 29.80 in 10.0 mi ESE 12.7 mph - N/A   Clear
5:58 AM 81.0 °F 83.8 °F 68.2 °F 65% 29.81 in 10.0 mi ESE 9.2 mph - N/A   Clear
6:58 AM 79.5 °F - 69.1 °F 70% 29.82 in 10.0 mi ESE 10.4 mph - N/A   Clear
7:58 AM 79.2 °F - 70.3 °F 74% 29.84 in 10.0 mi ESE 11.5 mph - N/A   Clear
8:58 AM 80.8 °F 84.7 °F 71.2 °F 73% 29.86 in 10.0 mi ESE 16.1 mph - N/A   Clear
9:58 AM 82.9 °F 88.0 °F 71.8 °F 69% 29.86 in 10.0 mi ESE 15.0 mph - N/A   Clear
10:33 AM 84.2 °F 89.6 °F 71.6 °F 66% 29.91 in 10.0 mi SE 12.7 mph - N/A   Mostly Cloudy
10:38 AM 84.2 °F 89.6 °F 71.6 °F 66% 29.91 in 10.0 mi SSE 12.7 mph - N/A   Scattered Clouds
10:58 AM 85.3 °F 91.5 °F 72.3 °F 65% 29.87 in 10.0 mi SSE 11.5 mph - N/A   Partly Cloudy
11:58 AM 87.1 °F 93.6 °F 72.0 °F 61% 29.86 in 10.0 mi Variable 6.9 mph - N/A   Partly Cloudy
12:58 PM 91.0 °F 97.6 °F 71.4 °F 52% 29.84 in 10.0 mi SSE 8.1 mph - N/A   Partly Cloudy
1:58 PM 95.0 °F 101.9 °F 70.7 °F 45% 29.81 in 10.0 mi South 9.2 mph - N/A   Scattered Clouds
2:58 PM 97.9 °F 102.7 °F 67.6 °F 37% 29.79 in 10.0 mi South 11.5 mph 16.1 mph N/A   Partly Cloudy
3:58 PM 100.6 °F 102.7 °F 63.0 °F 29% 29.76 in 10.0 mi SSE 11.5 mph 16.1 mph N/A   Clear
4:26 PM 100.4 °F 103.6 °F 64.4 °F 31% 29.80 in 10.0 mi SSE 15.0 mph 19.6 mph N/A   Clear
4:58 PM 101.8 °F 104.9 °F 63.9 °F 29% 29.75 in 10.0 mi SSE 8.1 mph - N/A   Clear
5:58 PM 99.9 °F 102.1 °F 63.1 °F 30% 29.73 in 10.0 mi SSE 8.1 mph - N/A   Clear
6:58 PM 98.8 °F 100.3 °F 61.9 °F 30% 29.73 in 10.0 mi SSE 10.4 mph - N/A   Clear
7:58 PM 97.7 °F 100.6 °F 64.6 °F 34% 29.73 in 10.0 mi SSE 5.8 mph - N/A   Clear
8:58 PM 96.4 °F 98.4 °F 64.2 °F 34% 29.74 in 10.0 mi SSE 3.5 mph - N/A   Clear
9:58 PM 93.7 °F 95.3 °F 63.5 °F 37% 29.76 in 10.0 mi East 4.6 mph - N/A   Clear
11:58 PM 90.1 °F 90.6 °F 62.4 °F 39% 29.79 in 10.0 mi ESE 6.9 mph - N/A   Scattered Clouds